Theta_e
328 328 324 319 319 320 319 318 319 319 318 318 318 318 320 319 318 317 318 316 315 314 312 310 310 307 306 305 304 305 304 302
326 324 321 318 317 317 317 318 318 316 316 315 316 316 317 316 316 317 316 314 314 311 308 307 306 303 303 302 300 299 299 301
320 320 318 316 315 316 317 317 319 320 319 320 319 318 316 316 315 314 313 311 309 305 305 303 303 301 300 300 298 297 297 300
317 317 317 316 315 316 316 318 319 320 319 318 318 318 317 314 313 310 309 307 305 304 303 302 301 300 298 298 297 297 294 296
317 316 316 315 315 317 318 319 319 319 320 317 316 315 313 313 311 309 306 305 303 303 303 302 301 299 298 297 298 297 296 293
316 316 316 317 317 318 321 319 318 319 319 320 317 315 315 313 311 309 307 303 301 301 302 301 299 298 298 297 297 296 295 293
316 317 318 317 318 319 320 318 317 319 319 319 318 316 314 312 311 308 306 302 300 300 301 299 298 297 296 296 297 296 294 294
315 316 316 317 317 318 318 317 316 318 319 318 318 317 314 312 309 305 303 300 298 297 298 297 296 296 296 296 296 295 294 293
316 317 317 317 317 317 317 316 315 317 318 318 317 315 312 309 305 303 300 298 297 297 296 296 296 296 295 295 295 294 293 292
317 318 318 317 317 318 319 317 317 317 317 315 313 311 309 305 303 302 299 297 296 296 295 295 295 295 294 293 293 292 292 291
317 318 319 319 318 319 320 319 317 317 315 313 310 309 307 304 302 299 298 297 296 295 294 294 294 293 293 292 292 292 290 290
317 319 320 321 320 319 318 318 317 314 313 311 309 306 304 302 299 298 297 296 295 294 293 293 293 292 292 291 291 291 290 289
319 319 320 320 319 318 317 317 315 313 311 309 307 304 302 299 298 297 297 296 295 293 293 292 292 292 291 290 289 289 289 288
319 319 318 318 319 318 317 316 313 311 309 306 304 302 300 298 297 297 296 294 293 293 292 292 291 291 290 290 289 289 288 288
318 318 317 317 317 317 316 314 312 309 306 304 302 300 298 297 297 296 295 294 292 292 292 292 291 291 290 290 287 286 286 287
317 317 317 315 315 315 314 311 310 306 304 303 301 300 298 297 296 295 294 292 292 291 291 290 290 290 289 286 285 283 283 284
317 317 317 314 313 313 312 309 305 305 303 301 300 299 297 296 295 294 293 292 291 290 289 289 289 289 284 284 283 281 282 283
314 316 316 315 313 312 309 306 306 303 302 300 299 298 296 295 294 293 292 290 290 289 289 289 288 288 284 283 282 281 281 282
314 316 317 315 313 311 309 307 302 302 300 298 298 297 295 294 293 292 291 290 289 288 288 288 288 288 285 283 281 281 282 283
Wind_Speed
13 13 14 14 12 11 11 8 8 8 5 5 4 4 4 5 5 5 7 5 8 6 5 6 5 5 5 6 7 6 4 6
12 12 12 13 11 10 10 9 8 5 5 5 4 4 4 5 5 7 7 7 7 8 5 6 6 6 6 7 5 7 5 6
14 13 13 12 10 10 10 9 8 5 4 3 4 5 6 6 5 5 6 7 8 7 6 5 6 5 6 6 7 4 4 6
14 14 13 12 10 9 10 9 6 4 7 5 4 4 5 5 6 6 5 7 6 6 6 5 6 5 5 5 6 7 4 5
14 14 13 13 10 9 8 8 6 6 7 7 8 5 5 4 6 5 5 6 6 6 6 6 6 4 6 5 5 4 5 5
15 14 14 13 11 8 7 7 8 7 4 5 2 7 5 5 5 6 7 6 6 5 6 6 6 4 5 6 5 6 4 4
15 14 14 12 11 10 7 8 7 6 5 4 3 6 5 5 4 3 4 4 5 5 6 5 5 5 5 4 4 5 5 5
16 16 14 14 13 10 8 9 9 7 6 5 6 5 5 6 4 4 3 4 4 5 5 5 4 4 5 5 4 5 5 4
16 16 14 14 13 12 10 10 9 8 6 6 5 6 3 4 5 4 4 4 5 4 4 4 4 4 5 5 2 3 5 4
16 16 14 15 14 12 11 10 10 10 7 6 5 3 4 6 6 4 4 4 5 4 3 3 3 3 4 4 3 3 4 3
15 14 14 13 14 12 11 8 9 10 9 7 6 6 5 5 4 5 5 5 3 2 2 2 2 3 4 4 4 4 3 3
16 14 15 13 13 13 11 8 9 9 9 7 8 6 6 5 5 4 4 3 2 1 1 1 2 3 4 4 4 3 5 4
13 13 11 10 13 12 12 9 9 9 8 7 8 7 6 5 6 5 4 3 3 1 1 2 2 3 3 3 4 4 5 5
13 12 12 11 10 11 12 11 10 10 9 9 9 9 7 6 6 5 5 3 3 1 1 2 2 3 3 3 3 6 6 6
13 13 12 10 8 10 11 11 10 10 10 10 8 7 7 6 6 6 5 4 2 3 1 2 1 3 3 2 6 6 6 7
12 13 12 12 10 9 11 11 10 11 9 9 9 7 6 7 6 6 5 4 4 3 3 3 3 3 2 5 4 5 7 8
12 12 14 14 13 12 11 11 10 9 9 9 9 9 7 6 6 6 6 6 5 6 4 4 3 4 10 8 3 3 6 9
5 11 13 13 13 13 11 11 10 10 10 9 10 9 9 8 7 7 6 6 5 5 4 4 4 3 11 8 5 2 5 9
6 5 9 11 12 12 11 10 12 11 10 10 10 10 10 9 8 7 6 5 5 5 5 4 3 1 12 9 4 4 6 8
Wind_Direction
159 143 124 122 124 118 114 111 117 106 101 102 92 96 91 77 77 54 54 49 30 18 63 26 19 44 25 12 353 348 19 21
146 123 122 116 121 128 124 125 132 150 159 141 151 122 107 92 77 68 61 35 42 23 24 36 6 58 32 25 345 353 357 11
143 140 130 133 143 138 135 149 179 165 167 96 90 93 95 103 97 75 66 56 32 54 25 29 29 38 43 27 9 355 341 21
157 153 147 141 147 146 160 167 176 142 99 101 92 113 142 145 130 91 68 64 55 45 44 38 26 40 27 28 16 2 355 1
169 162 158 153 152 170 164 154 156 133 168 155 183 171 118 92 95 114 106 75 65 49 56 44 27 47 31 22 9 359 14 9
174 170 164 163 157 166 160 153 163 158 190 160 175 95 141 124 120 136 136 113 77 66 49 58 37 36 29 27 7 27 22 19
175 173 163 163 164 161 152 178 146 160 151 133 99 111 114 125 106 132 115 109 106 52 64 43 57 31 27 8 18 39 32 24
175 172 175 164 166 159 165 182 161 158 152 153 130 121 101 108 147 75 35 84 78 64 47 49 40 35 23 11 25 16 37 22
178 175 175 163 168 167 182 179 165 160 152 133 120 123 144 103 52 88 75 85 80 73 46 43 45 42 25 6 18 355 33 18
179 177 175 167 169 174 184 177 166 157 152 131 128 117 119 88 104 126 99 65 145 96 66 34 37 45 39 2 7 40 20 355
182 181 175 176 170 169 176 186 162 152 142 142 142 130 115 119 118 89 95 123 97 98 83 33 26 33 32 358 358 353 23 346
186 189 181 177 164 165 166 180 156 150 147 155 137 136 123 137 132 138 134 123 107 93 60 340 34 27 26 352 358 346 355 340
184 178 172 168 162 166 167 175 159 153 160 151 139 130 151 158 146 149 130 167 145 136 345 325 12 24 7 350 348 342 337 329
179 181 174 174 181 173 168 173 168 159 163 156 154 155 162 169 155 154 157 169 178 252 329 323 354 11 319 324 353 1 343 327
194 180 174 169 181 175 174 173 166 165 162 171 166 163 169 162 159 163 166 177 218 212 206 271 261 268 306 321 33 359 329 322
194 176 171 164 175 181 180 166 173 161 177 178 163 165 172 164 157 168 175 170 228 208 216 234 256 272 281 76 38 350 321 314
188 184 173 173 181 186 174 165 163 173 189 181 163 171 178 164 164 182 183 189 204 213 221 243 244 275 128 120 90 342 312 302
279 190 184 176 178 170 168 166 162 173 194 187 176 175 184 175 182 187 192 199 212 213 226 233 229 158 156 151 132 305 301 283
223 233 176 165 153 158 155 168 161 197 192 192 184 179 188 186 188 194 187 196 202 210 221 220 223 268 165 160 172 274 282 282